Regional Weather Roundup
Issued by NWS Albany, NY

Home | Current Version | Previous Version | Graphics & Text | Print | Product List | Glossary Off
Versions: 1 2 3 4 5 6 7 8 9 10 11 12 13 14 15 16 17 18 19 20 21 22 23 24 25 26 27 28 29 30 31 32 33 34 35 36 37 38 39 40 41 42 43 44 45 46 47 48 49 50

000
ASUS41 KALY 201010
RWRALY

NEW YORK STATE HOURLY WEATHER ROUNDUP
NATIONAL WEATHER SERVICE ALBANY NY
500 AM EST MON FEB 20 2017

NOTE: "FAIR" INDICATES FEW OR NO CLOUDS BELOW 12,000 FEET WITH NO
SIGNIFICANT WEATHER AND/OR NO OBSTRUCTIONS TO VISIBILITY.

NYZ032-033-038>043-046>054-057>066-NYZ062>081-082-084-201100-
EAST


CITY           SKY/WX    TMP DP  RH WIND       PRES   REMARKS
ALBANY         PTCLDY    36  28  73 N6        30.09R WCI  31
GLENS FALLS    CLEAR     33  24  69 N8        30.09R WCI  26
POUGHKEEPSIE   PTCLDY    30  27  88 CALM      30.06R
NEWBURGH       CLEAR     37  32  81 NW12      30.07R WCI  30
MONTGOMERY     PTCLDY    40  30  67 W10       30.05R WCI  33
WHITE PLAINS   PTCLDY    41  30  65 W6        30.05R
ISLIP          CLEAR     36  30  79 W3        30.05R
NEW YORK CITY  CLEAR     47  32  56 NW12      30.07R
CENTRAL PARK   CLEAR     45  31  58 NW5       30.10R
$$

NYZ005>009-017-018-044>046-055-056-201100-
CENTRAL


CITY           SKY/WX    TMP DP  RH WIND       PRES   REMARKS
FULTON         CLEAR     32  24  72 N7        30.21R WCI  26
SYRACUSE       MOCLDY    32  25  75 NW9       30.19R WCI  24
ROME           CLEAR     30  24  78 NW10      30.17R WCI  21
ELMIRA         MOCLDY    27  23  85 CALM      30.17R
BINGHAMTON     CLEAR     31  28  89 NW8       30.11R WCI  23
MONTICELLO     CLEAR     34  27  75 NW3       30.07R
$$

NYZ026>034-041>043-087-201100-
NORTH


CITY           SKY/WX    TMP DP  RH WIND       PRES   REMARKS
WATERTOWN      CLEAR     28  23  81 NE6       30.22R WCI  22
FORT DRUM      NOT AVBL
OGDENSBURG     FAIR      27  21  78 NW6       30.22R WCI  21
MASSENA        CLEAR     27  17  66 NW6       30.22R WCI  20
SARANAC LAKE   CLOUDY    26  18  71 VRB5      30.07R WCI  20
PLATTSBURGH    CLOUDY    32  19  58 NW8       30.14R WCI  25
$$

NYZ001>004-010>016-019>021-085-201100-
WEST


CITY           SKY/WX    TMP DP  RH WIND       PRES   REMARKS
NIAGARA FALLS  CLEAR     35  29  78 N8        30.23R WCI  29
BUFFALO        PTCLDY    29  26  89 CALM      30.22R
DUNKIRK        CLEAR     26  25  96 CALM      30.23R
JAMESTOWN      CLEAR     34  27  75 NW7       30.18R WCI  28
WELLSVILLE     CLEAR     33  28  81 NW3       30.16R
ROCHESTER      PTCLDY    30  27  88 N3        30.23R
PENN YAN       CLOUDY    36  28  73 N5        30.19R WCI  32
$$

             KEY
       WCI = WIND CHILL INDEX
       VSB = VISIBILITY
       HX  = HEAT INDEX
$$



USA.gov is the U.S. government's official web portal to all federal, state and local government web resources and services.